Zurück zum Katalog

FENGYUN 1C DEB

AktivPO
NORAD 31492·DEBRIS·🇨🇳 China

Gestartet May 10, 1999 von Taiyuan Satellite Launch Center

Loading…

Nächste Überflüge (nächste 24 Stunden)

TLE

AktuellSource: Space-Track

Epoche: Sep 14, 2026, 00:09 UTC

1 31492U 99025BWF 26257.00678618  .00014858  00000-0  18162-2 0  9998
2 31492  98.8583  95.0832 0049018 222.6698 137.0701 14.82512761  5490

Verfolge FENGYUN 1C DEB in Echtzeit mit AllMySat

Download on the App Store